Regional Weather Roundup
Issued by NWS Charleston, SC

Current Version | Previous Version | Graphics & Text | Print | Product List | Glossary Off
Versions: 1 2 3 4 5 6 7 8 9 10 11 12 13 14 15 16 17 18 19 20 21 22 23 24 25 26 27 28 29 30 31 32 33 34 35 36 37 38 39 40 41 42 43 44 45 46 47 48 49 50

000
ASUS42 KCHS 311628
RWRCHS

REGIONAL WEATHER ROUNDUP
NATIONAL WEATHER SERVICE CHARLESTON SC
1200 PM EDT TUE MAY 31 2016

NOTE: "FAIR" INDICATES FEW OR NO CLOUDS BELOW 12,000 FEET WITH NO
SIGNIFICANT WEATHER AND/OR OBSTRUCTIONS TO VISIBILITY.

NOT ALL STATIONS ARE QUALITY CONTROLLED. USE DATA WITH CAUTION...
ESPECIALLY DEWPOINT OBSERVATIONS.

SCZ027-030-031-034>040-042>050-311700-
...SOUTHEAST SOUTH CAROLINA...

CITY           SKY/WX    TMP DP  RH WIND       PRES   REMARKS
N CHARLESTON   PTSUNNY   80  70  71 NW9       29.94F
WATERFRONT PRK   N/A     78  71  79 N9        29.92S
MOUNT PLEASANT FAIR      81  72  74 NW8       29.93F
JOHNS ISLAND   FAIR      82  72  69 N10       29.94S
PINOPOLIS        N/A     79  72  78 N6        29.89R
MONCKS CORNER  PTSUNNY   77  68  73 N7        29.94F
SUMMERVILLE    PTSUNNY   79  72  78 N8        29.95F
BEAUFORT MCAS  PTSUNNY   82  70  66 N10       29.95S
BEAUFORT ARPT  PTSUNNY   81  68  65 N8        29.95S
HILTON HEAD IS MOSUNNY   81  72  74 N9        29.97S
WALTERBORO     MOSUNNY   82  70  65 NW5       29.96F
ALLENDALE      PTSUNNY   81  70  69 VRB7      29.96S

...SOUTHERN MIDLANDS AND PEE DEE...

CITY           SKY/WX    TMP DP  RH WIND       PRES   REMARKS
GEORGETOWN     RAIN      77  70  78 N10       29.93S
KINGSTREE      FAIR      81  68  65 N8        29.94S
ORANGEBURG     MOSUNNY   79  69  71 E8        29.97F
BARNWELL       FAIR      84  79  84 E9        29.97F HX  96
AIKEN          FAIR      82  68  61 NE7       30.01R
MANNING        FAIR      79  70  73 N8        29.95S
COLUMBIA       PTSUNNY   84  68  58 VRB7      29.96S
SUMTER         MOSUNNY   80  69  70 N9        29.94F
FLORENCE       MOSUNNY   83  70  64 N8        29.94F
MYRTLE BEACH   CLOUDY    79  66  65 N12       29.93
N MYRTLE BEACH CLOUDY    79  71  76 NE9       29.90S

$$

GAZ063-065-086>088-099>101-113>116-118-119-134>141-150-311700-
...SOUTHEAST GEORGIA...

CITY           SKY/WX    TMP DP  RH WIND       PRES   REMARKS
SAVANNAH ARPT  MOSUNNY   86  70  58 N9        29.95S HX  90
HUNTER AAF     MOSUNNY   85  74  68 N6        29.92F HX  93
FORT STEWART   SUNNY     87  69  55 VRB1      29.92S HAZE    HX  91
STATESBORO     SUNNY     86  72  63 NE6       29.96S HX  92
SYLVANIA       SUNNY     85  73  66 E8        29.97S HX  91
CLAXTON        FAIR      87  73  62 N7        29.95S HX  93

...CSRA...CENTRAL AND FAR SOUTHEAST GEORGIA...

CITY           SKY/WX    TMP DP  RH WIND       PRES   REMARKS
THOMSON        MOSUNNY   85  72  63 E5        30.01S HX  91
AUGUSTA-BUSH   MOSUNNY   83  69  62 E7        29.96S
AUGUSTA-DANIEL SUNNY     86  67  52 N9        29.98S
SWAINSBORO     FAIR      86  68  54 N7        29.97S
VIDALIA        SUNNY     88  68  51 E5        29.96S HX  91
EASTMAN        FAIR      91  64  41 S3        29.97F HX  92
HAZLEHURST     FAIR      91  64  40 CALM      29.94F HX  92
ALMA           SUNNY     90  67  46 VRB5      29.94S HX  93
WAYCROSS       SUNNY     90  68  48 W6        29.94F HX  94
JESUP          FAIR      84  66  54 E5        29.95S
BAXLEY         FAIR      90  66  45 CALM      29.94S HX  92
BRUNSWICK      SUNNY     93  70  46 CALM      29.95S HX  99
SAINT SIMONS   SUNNY     84  70  62 E10       29.94S

$$

SCZ027-028-034-036>038-045-046-048>050-GAZ119-141-311700-
...LAKE AND SUPPLEMENTAL COASTAL OBSERVATIONS...

STATION/POSITION TIME  TEMP    WIND        PRES    WAVE   SWELL
                       AIR SEA DIR/SP/G            HT/PER HT/PER/DIR
                 (UTC) (F)     (DEG/KT/KT) (MB)    (FT/S) (FT/S/D)
WINYAH BAY       1500   77     360/  6     1012.0
LAKE MURRAY      1500   76      90/  3/  5 1014.6F
ACE BASIN NERRS  1545   81      10/  3     1014.0S
FORT PULASKI     1600   79 76   90/  7/  8 1014.4S
SAPELO ISLAND    1600   86     100/  7     1014.0S

$$

ANZ835-935-AMZ111-154-330-350-352-354-370-450-454-472-311700-
...C-MAN AND BUOY OBSERVATIONS...

STATION/POSITION TIME  TEMP    WIND        PRES    WAVE   SWELL
                       AIR SEA DIR/SP/G            HT/PER HT/PER/DIR
                 (UTC) (F)     (DEG/KT/KT) (MB)    (FT/S) (FT/S/D)
BUOY 41004       1550   74 77  330/ 10/ 12 1013.1S   4/ 8   3/ 8
BUOY 41008       1550   76 78   50/  6/  6 1014.2R   2/ 8   2/ 90/ 8
FOLLY BEACH CMAN 1600   80     360/  6/  8 1014.0S
CAPERS NEARSHORE 1608   77 76  320/  6/  8 1013.4F
FRIPP NEARSHORE  1608   76 76   20/  8/ 12 1013.6F


STATION/POSITION TIME  TEMP    WIND        PRES    WAVE   SWELL
                       AIR SEA DIR/SP/G            HT/PER HT/PER/DIR
                 (UTC) (F)     (DEG/KT/KT) (MB)    (FT/S) (FT/S/D)
5E ST. MARYS GA  1601      79                N/A     2/ 8
FRYING PAN BUOY  1600   77 79  150/ 12/ 16 1011.6F
BUOY 41025       1550   76 80  360/ 10/ 12 1014.2S   5/ 8   5/150/ 8
CAPE LOOKOUT NC  1600   76      60/ 10/ 11 1013.6R
BUOY 41002       1550   76 77  170/ 10/ 12 1015.7S   4/ 7   3/110/ 7
BUOY 41010       1520   79 80  200/  8/ 10 1015.7R
ST AUGUSTINE FL  1600   80 80   90/  8/  8 1015.6R


$$



USA.gov is the U.S. government's official web portal to all federal, state and local government web resources and services.